Weather in Limoges

France     45°49′38″N   1°15′56″E
temp.,
°C
wind,
m/s
gust,
m/s
humid.,
%
clouds,
%
prec.,
mm/h
press.,
hPa
HPBL,
m
16 may, sun
sun1623:00+11ssw3897100 0.2 1011600
02:00+11sw1599100 1.6 1010350
05:00+10sw02100100 4.4 1007173
08:00+11w3999100 8.7 1008705
11:00+11sw2797100 1.0 1009523
14:00+12wsw51194100 1.9 10101137
17:00+14w5115599 0.3 10101756
20:00+11wsw5117542 0.5 10111259
17 may, mon
mon1723:00+8sw4108914 0.1 1014631
02:00+9wsw51081100 0.2 10141016
05:00+9wsw41080100 0.0 10141088
08:00+8sw41090100 0.2 10161069
11:00+10wsw4109295 0.5 1016968
14:00+14w5106542 1.6 10171680
17:00+16w69517 0.3 10162055
20:00+12w49695 0.4 10181180
18 may, tue
tue1823:00+7wsw27936 0.0 1021260
02:00+6sw279998 0.0 1021243
05:00+8wsw3788100 0.0 1021563
08:00+9w3784100 0.1 1022629
11:00+12w35632 0.1 10221261
14:00+15w455752 0.6 10221746
17:00+15wnw355298 0.6 10221994
20:00+13wnw36635 0.7 1023514
19 may, wed
wed1923:00+6wnw11930 0.0 102612
02:00+4s0096100 0.0 102610
05:00+4ssw119648 0.0 102611
08:00+6ssw1291100 0.0 1027115
11:00+13wsw35555 0.0 10251248
14:00+14wsw476698 0.5 10241446
17:00+16w5747100 0.4 10232183
20:00+13w487543 0.7 1024958
20 may, thu
thu2023:00+8w2792100 0.0 1027241
02:00+7w2598100 0.0 1027164
05:00+8w1695100 0.0 1026323
08:00+8nnw129377 0.0 1027209
11:00+13n026998 0.1 10261015
14:00+15n1255100 0.2 10261312
17:00+17e125168 0.0 10231475
20:00+15se11715 0.0 102241